Wind_Speed
4 3 2 1 3 6 7 7 9 10 11 11 11 11 11 12 14 15 15 15 15 14 13 12 12 13 12 11 10 9 9 9 8 8 8 7 6 7 7 7 7 7 7
4 4 2 1 3 5 7 8 8 9 10 10 10 11 11 13 13 13 15 15 15 14 14 13 12 13 11 10 10 9 9 8 8 8 7 6 7 7 8 7 8 7 7
5 5 3 2 3 4 6 8 8 9 10 9 11 11 12 13 13 13 13 14 14 14 14 13 12 12 11 11 10 9 8 8 7 6 6 6 7 7 7 8 7 7 6
7 6 5 3 3 4 6 8 8 8 9 9 11 11 12 12 13 13 13 13 14 14 13 12 12 11 11 10 9 8 8 7 6 6 6 6 6 7 7 7 6 6 6
8 8 7 5 4 4 6 7 7 8 9 10 11 11 12 12 12 13 13 13 13 12 11 11 11 10 10 9 9 8 7 6 6 6 6 6 6 6 6 6 6 5 5
9 8 8 7 5 5 6 6 7 9 9 10 10 10 11 11 10 11 12 12 12 12 11 11 10 9 9 8 8 8 7 6 6 5 5 5 6 6 5 5 5 5 5
10 9 8 7 6 6 6 7 7 8 9 9 9 10 9 10 9 10 12 11 11 11 11 11 9 8 8 7 7 7 7 6 6 5 5 5 5 5 5 5 5 4 4
10 9 8 7 6 6 8 8 9 9 9 9 9 9 9 9 10 10 11 11 10 10 9 9 9 8 7 7 7 7 6 5 5 5 5 5 5 5 5 4 4 3 3
11 10 8 7 7 7 7 8 9 10 10 9 9 9 9 8 8 8 9 10 9 9 9 9 8 7 7 7 7 6 6 5 5 5 5 4 4 4 4 3 3 3 3
11 10 9 7 7 7 7 7 8 9 9 9 9 8 8 7 8 8 9 9 8 8 8 9 8 6 6 6 6 6 6 6 5 4 4 4 4 4 3 3 2 2 3
12 11 10 8 7 7 7 7 8 7 8 8 8 8 7 7 7 7 8 8 8 8 8 7 7 6 6 6 6 5 5 5 5 4 4 4 4 3 3 3 2 2 2
13 12 11 10 9 8 7 8 7 6 7 7 7 7 7 6 6 6 7 7 7 8 7 7 7 6 6 6 5 5 5 5 5 5 4 4 4 3 2 2 2 2 2
14 13 12 11 9 9 8 7 7 6 6 6 5 5 5 4 5 6 7 7 7 6 7 7 7 7 6 5 5 5 6 6 5 4 4 4 3 3 2 1 2 2 2
13 13 12 11 10 8 8 7 7 6 6 5 5 5 4 4 4 6 6 6 6 6 6 7 6 7 6 6 5 5 6 6 5 5 5 4 4 3 2 2 2 2 2
13 12 11 10 9 8 7 7 7 6 5 5 5 5 5 5 5 5 5 5 5 4 5 6 6 6 6 6 5 5 6 5 5 5 5 4 4 4 3 3 3 4 4
13 12 11 10 9 8 7 6 5 5 4 4 4 4 4 4 3 3 3 3 3 4 6 6 5 5 5 6 5 5 5 5 5 5 5 5 5 5 5 5 5 5 5
13 12 11 11 9 8 7 6 5 5 4 4 4 3 3 2 2 2 2 2 2 4 5 5 5 4 4 5 5 5 5 5 6 6 5 5 5 6 5 5 6 6 6
13 12 12 11 10 8 7 6 6 5 5 4 3 3 2 2 2 1 2 1 1 2 4 4 4 4 4 4 5 5 5 6 6 7 6 7 7 7 7 7 7 7 7
13 12 12 11 11 9 8 7 6 6 4 4 3 3 3 2 1 0 0 1 1 2 3 4 4 4 4 5 5 6 6 6 6 7 7 7 8 8 8 8 8 7 8
12 12 11 11 11 9 8 7 6 6 5 4 3 3 3 2 1 1 1 1 1 1 2 3 4 5 5 5 6 7 7 7 7 7 7 8 8 9 9 9 9 9 9
10 10 10 10 9 9 8 7 6 6 5 4 3 3 2 2 2 1 2 2 2 2 2 3 3 5 5 5 6 7 7 8 8 8 8 8 9 9 10 10 10 11 10
10 10 10 9 9 9 8 7 6 5 5 4 3 4 3 2 2 3 2 3 3 2 2 3 4 5 7 6 7 7 8 8 8 9 9 8 9 10 11 11 11 11 10
9 10 10 10 9 9 8 8 7 6 5 4 4 4 3 3 3 4 4 4 4 4 4 4 5 5 6 7 7 7 8 8 8 9 9 9 10 11 11 11 11 11 11
8 9 10 10 9 9 9 8 8 7 6 5 4 4 4 4 4 5 4 4 4 4 5 5 6 7 7 7 8 8 8 8 8 9 10 11 11 11 11 12 12 12 12
9 9 9 10 9 9 9 9 8 7 7 7 5 5 5 5 5 5 5 6 5 5 6 6 7 8 9 9 9 9 9 9 9 10 11 12 12 12 12 13 13 14 14
10 10 9 10 10 11 10 10 9 8 8 7 7 6 6 6 7 6 7 7 7 7 7 8 9 9 10 10 10 11 11 11 11 11 12 12 12 13 14 14 15 15 14
Wind_Direction
344 347 315 207 180 169 165 163 158 155 160 156 155 156 153 148 156 161 157 157 155 152 149 146 145 143 140 139 137 134 130 124 117 109 115 120 116 114 111 108 109 105 102
358 5 347 220 153 152 156 158 158 155 157 151 151 155 151 150 153 158 160 159 155 150 145 147 148 146 142 138 135 131 125 121 114 109 109 108 109 111 114 112 113 108 105
16 25 33 102 116 141 148 152 150 150 152 152 152 153 151 152 153 153 159 160 156 151 147 149 151 151 148 143 138 131 127 125 116 108 107 110 113 113 116 117 117 112 105
34 44 53 69 95 117 135 144 143 146 150 154 157 154 151 153 154 153 156 158 155 150 151 153 152 152 152 151 148 141 137 132 124 113 111 112 114 118 121 117 114 111 108
44 51 58 68 87 115 128 138 145 149 152 153 153 150 146 150 153 153 156 155 153 152 155 153 151 152 153 155 153 148 144 136 126 117 121 121 119 121 125 117 109 107 113
50 51 59 68 86 114 124 135 143 147 147 148 151 153 148 147 148 152 152 153 155 154 154 151 148 150 153 155 157 153 147 139 131 125 129 129 126 123 121 117 110 100 95
53 54 62 70 83 104 113 126 137 143 144 144 146 154 151 148 146 154 157 157 159 157 158 160 158 157 153 158 163 160 153 146 145 140 136 135 133 129 125 117 113 107 95
54 57 68 78 86 99 106 110 122 138 143 144 147 152 152 150 149 151 156 157 159 156 159 164 164 162 160 162 163 164 157 149 150 145 146 145 142 137 133 126 125 120 113
52 59 66 77 92 99 102 108 118 130 140 142 146 150 151 153 158 161 160 161 160 160 164 168 169 168 169 169 165 160 161 154 151 144 153 149 145 144 143 141 141 141 131
49 55 56 65 84 94 100 105 118 130 137 142 147 149 149 151 153 157 165 169 170 173 175 175 173 171 170 174 170 159 158 160 153 155 165 157 153 147 149 157 165 163 152
50 52 53 56 74 86 96 108 118 127 137 140 142 146 145 148 147 150 161 164 166 172 175 175 174 172 171 173 172 164 161 165 160 166 168 166 161 159 161 163 163 162 172
49 51 57 59 70 81 93 104 109 119 131 139 142 148 150 159 160 159 166 170 169 168 174 172 174 171 171 174 175 173 165 161 163 163 167 166 165 167 166 175 181 170 190
46 50 58 64 67 76 89 91 96 105 116 126 133 147 152 161 166 171 169 173 173 174 175 172 176 176 179 183 181 181 179 168 173 173 175 176 176 180 185 196 217 213 217
44 47 54 60 65 73 81 86 89 95 101 110 121 134 143 152 161 171 170 170 170 176 181 176 173 183 186 187 185 189 186 179 182 190 197 199 200 207 226 229 240 243 242
42 45 52 56 60 65 70 75 84 91 96 102 105 119 138 151 150 160 163 160 162 170 177 175 179 189 193 188 188 191 191 194 201 208 214 218 224 234 252 253 257 258 255
41 43 47 48 52 55 60 65 72 79 89 99 100 110 119 130 142 136 147 155 169 167 169 173 181 194 200 196 197 202 212 219 221 225 225 230 242 251 257 264 261 260 263
40 40 42 44 47 48 49 54 60 64 74 84 90 101 110 109 113 131 152 161 172 179 183 183 187 190 198 205 210 214 225 229 225 231 233 237 246 255 260 265 264 266 270
39 38 38 40 42 46 45 47 54 58 64 68 74 70 81 90 103 139 166 185 179 186 186 192 200 204 210 218 226 230 234 236 233 236 238 243 249 254 262 268 267 266 270
37 37 36 37 37 41 41 40 44 47 52 57 62 61 58 69 82 41 22 251 230 213 204 207 215 228 236 244 245 245 244 244 243 241 244 250 256 259 261 265 267 267 271
31 33 33 32 34 34 35 33 32 34 41 45 47 51 42 41 29 341 357 349 297 230 228 235 236 246 251 252 254 254 254 254 253 251 252 255 260 261 263 264 268 267 268
18 21 24 25 25 25 24 26 25 26 34 33 27 21 15 6 347 305 307 326 301 282 276 266 258 263 261 255 255 258 258 259 259 257 257 260 261 263 264 265 267 265 266
9 11 12 12 12 12 13 14 15 14 10 10 8 8 356 317 304 313 300 307 303 296 289 280 276 272 270 272 269 264 265 264 260 260 259 263 268 268 265 267 269 270 269
360 360 2 2 360 359 360 4 1 354 356 1 356 351 337 313 309 316 319 317 302 299 288 283 282 283 287 288 280 270 273 271 266 264 263 262 266 270 270 268 271 270 268
344 349 352 352 351 353 352 349 351 346 341 342 335 331 331 322 312 313 317 321 312 300 297 295 293 291 293 291 287 285 281 276 272 270 266 267 272 272 271 268 268 269 272
322 332 342 346 348 349 346 341 338 338 335 333 327 325 322 322 317 311 302 308 308 303 301 301 300 296 293 289 288 288 287 287 282 278 274 272 272 268 268 269 268 270 271
307 313 321 330 335 337 337 338 335 331 328 326 324 325 324 319 317 313 303 296 298 299 297 301 301 295 292 292 293 290 288 286 283 284 281 275 273 271 270 270 269 271 275
Height
5851 5850 5849 5849 5850 5850 5851 5851 5851 5852 5854 5855 5856 5858 5859 5860 5862 5864 5867 5869 5870 5872 5874 5876 5877 5879 5881 5882 5883 5885 5886 5887 5888 5889 5890 5891 5892 5892 5894 5895 5895 5896 5896
5851 5851 5850 5850 5850 5851 5851 5852 5853 5854 5855 5856 5857 5859 5860 5862 5864 5866 5868 5869 5871 5873 5875 5877 5879 5880 5882 5883 5884 5886 5887 5888 5889 5890 5891 5892 5893 5893 5894 5895 5896 5897 5897
5852 5851 5851 5851 5851 5851 5852 5853 5854 5855 5856 5857 5859 5860 5862 5864 5865 5867 5869 5870 5872 5874 5876 5878 5880 5881 5883 5884 5886 5887 5888 5889 5890 5891 5892 5893 5893 5894 5895 5896 5896 5897 5898
5853 5852 5852 5852 5852 5853 5853 5854 5855 5856 5858 5859 5860 5862 5863 5865 5866 5868 5870 5872 5873 5875 5877 5879 5881 5882 5884 5885 5887 5888 5889 5890 5890 5891 5892 5893 5894 5895 5896 5897 5897 5898 5898
5854 5854 5853 5853 5854 5854 5854 5855 5856 5857 5859 5860 5862 5863 5864 5866 5867 5869 5870 5872 5874 5876 5878 5880 5881 5883 5885 5886 5887 5889 5890 5891 5891 5892 5893 5894 5895 5896 5897 5897 5898 5898 5899
5856 5855 5855 5854 5855 5855 5855 5856 5857 5859 5860 5862 5864 5865 5866 5867 5869 5870 5872 5874 5876 5877 5879 5881 5883 5884 5886 5887 5888 5889 5890 5891 5892 5893 5894 5895 5896 5897 5898 5898 5899 5899 5900
5857 5856 5856 5856 5856 5856 5856 5857 5857 5859 5861 5863 5865 5866 5868 5869 5870 5872 5873 5875 5877 5879 5880 5882 5883 5885 5886 5888 5889 5890 5891 5892 5893 5894 5895 5895 5896 5897 5898 5899 5899 5900 5900
5859 5858 5858 5858 5858 5858 5858 5858 5857 5860 5863 5865 5866 5868 5869 5870 5872 5873 5875 5876 5878 5880 5881 5883 5884 5885 5887 5888 5889 5891 5892 5893 5894 5894 5895 5896 5897 5898 5898 5899 5900 5900 5901
5861 5860 5860 5860 5859 5860 5860 5860 5861 5862 5864 5866 5868 5869 5870 5871 5873 5874 5875 5877 5879 5880 5882 5883 5885 5886 5888 5889 5890 5891 5892 5893 5894 5895 5896 5896 5897 5898 5899 5900 5900 5901 5901
5863 5862 5862 5861 5861 5861 5862 5862 5864 5865 5866 5868 5869 5870 5871 5872 5873 5875 5876 5877 5879 5881 5883 5884 5885 5887 5888 5889 5891 5891 5892 5893 5894 5895 5896 5897 5897 5898 5899 5900 5900 5901 5901
5865 5865 5864 5864 5863 5863 5864 5864 5866 5867 5868 5869 5870 5871 5872 5873 5874 5875 5877 5879 5880 5881 5883 5885 5886 5887 5888 5890 5891 5892 5893 5894 5895 5896 5896 5897 5898 5899 5899 5900 5900 5901 5902
5868 5867 5866 5866 5866 5866 5866 5866 5868 5868 5869 5871 5872 5872 5873 5874 5875 5876 5877 5879 5880 5882 5883 5885 5886 5888 5889 5890 5891 5892 5893 5894 5895 5896 5896 5897 5898 5899 5899 5900 5901 5901 5901
5871 5870 5869 5869 5868 5868 5869 5869 5870 5870 5871 5872 5873 5874 5874 5875 5876 5877 5878 5879 5881 5882 5884 5885 5887 5888 5889 5890 5891 5892 5893 5894 5895 5896 5896 5897 5898 5899 5899 5900 5900 5901 5901
5873 5873 5872 5871 5871 5871 5871 5871 5872 5872 5872 5873 5874 5875 5876 5876 5877 5878 5879 5880 5881 5883 5884 5886 5887 5888 5889 5890 5891 5892 5893 5894 5895 5896 5896 5897 5898 5899 5899 5900 5900 5900 5901
5876 5875 5874 5874 5873 5873 5873 5873 5873 5874 5874 5875 5875 5876 5877 5878 5878 5879 5879 5880 5882 5883 5885 5886 5887 5888 5889 5890 5891 5892 5893 5894 5895 5895 5896 5897 5898 5898 5899 5899 5899 5900 5900
5878 5877 5876 5876 5875 5875 5875 5875 5875 5875 5876 5876 5877 5877 5878 5878 5879 5880 5880 5881 5882 5884 5885 5886 5887 5888 5889 5890 5891 5892 5893 5893 5894 5895 5896 5896 5897 5897 5898 5898 5899 5899 5900
5880 5879 5878 5878 5877 5877 5876 5876 5876 5877 5877 5877 5878 5878 5878 5879 5880 5881 5881 5882 5883 5884 5885 5886 5887 5888 5889 5890 5890 5891 5892 5893 5893 5894 5895 5896 5896 5896 5897 5897 5898 5898 5899
5883 5882 5881 5880 5879 5879 5878 5878 5878 5878 5878 5878 5878 5879 5879 5880 5881 5881 5882 5882 5883 5884 5885 5886 5887 5887 5888 5889 5890 5890 5891 5892 5893 5893 5894 5894 5895 5895 5896 5896 5896 5897 5897
5885 5884 5883 5882 5881 5880 5880 5880 5879 5879 5879 5879 5880 5880 5880 5880 5881 5882 5882 5882 5883 5884 5885 5886 5886 5887 5888 5888 5889 5889 5890 5891 5891 5892 5892 5893 5893 5894 5894 5894 5895 5895 5895
5887 5886 5885 5884 5883 5882 5881 5881 5881 5880 5880 5881 5881 5881 5881 5882 5882 5882 5882 5882 5883 5884 5885 5885 5886 5886 5887 5887 5888 5888 5889 5890 5890 5890 5891 5891 5891 5892 5892 5892 5893 5893 5893
5889 5888 5887 5886 5885 5884 5883 5882 5882 5882 5881 5882 5882 5882 5882 5882 5882 5882 5883 5883 5883 5884 5884 5884 5885 5885 5886 5886 5887 5887 5888 5888 5889 5889 5889 5889 5890 5890 5890 5890 5891 5891 5891
5890 5889 5888 5887 5886 5885 5884 5884 5883 5883 5882 5882 5882 5883 5883 5883 5883 5883 5883 5883 5883 5884 5884 5884 5884 5884 5885 5885 5886 5886 5886 5887 5887 5887 5887 5887 5888 5888 5888 5888 5888 5889 5889
5891 5890 5889 5888 5887 5886 5885 5884 5884 5883 5883 5883 5883 5883 5883 5883 5883 5883 5883 5883 5883 5884 5884 5884 5884 5883 5884 5884 5884 5884 5884 5885 5885 5885 5885 5885 5886 5885 5885 5886 5886 5886 5886
5891 5890 5889 5888 5887 5886 5885 5885 5884 5884 5883 5883 5883 5883 5883 5883 5883 5883 5883 5883 5883 5883 5883 5883 5883 5883 5882 5882 5882 5882 5882 5882 5882 5883 5883 5883 5883 5883 5883 5883 5883 5883 5884
5890 5889 5889 5888 5886 5885 5885 5884 5883 5883 5883 5883 5882 5882 5882 5882 5882 5882 5882 5882 5882 5882 5882 5882 5881 5881 5881 5881 5880 5880 5880 5880 5880 5880 5880 5880 5880 5880 5880 5880 5880 5880 5881
5888 5888 5888 5887 5886 5885 5885 5884 5883 5883 5882 5882 5882 5881 5881 5881 5881 5881 5881 5880 5881 5880 5880 5880 5880 5880 5879 5879 5879 5878 5878 5878 5878 5877 5877 5877 5877 5877 5877 5877 5876 5877 5877